Back to catalog

FENGYUN 1C DEB

AliveSSO
NORAD 31252·DEBRIS·🇨🇳 China

Launched May 10, 1999 from Taiyuan Satellite Launch Center

Loading…

Next Passes (next 24 hours)

TLE

AgingSource: Space-Track

Epoch: Sep 7, 2026, 06:33 UTC

1 31252U 99025BMJ 26250.27352275  .00001013  00000-0  25255-3 0  9993
2 31252  98.3037 266.6726 0212707  82.5291 280.0010 14.40967264 10742

Track FENGYUN 1C DEB in real time with AllMySat

Download on the App Store